Regional Weather Roundup
Issued by NWS

Home | Current Version | Previous Version | Graphics & Text | Print | Product List | Glossary On
Versions: 1 2 3 4 5 6 7 8 9 10 11 12 13 14 15 16 17 18 19 20 21 22 23 24 25 26 27 28 29 30 31 32 33 34 35 36 37 38 39 40 41 42 43 44 45 46 47 48 49 50
000
ASUS43 KFSD 231110
RWRSD

WEATHER ROUNDUP FOR SOUTH DAKOTA
NATIONAL WEATHER SERVICE SIOUX FALLS SD
500 AM CST THU FEB 23 2017

NOTE: "FAIR" INDICATES FEW OR NO CLOUDS BELOW 12,000 FEET WITH NO
SIGNIFICANT WEATHER AND/OR OBSTRUCTIONS TO VISIBILITY.


SDZ001>005-009-010-012>017-231200-
NORTHWEST AND NORTH CENTRAL SOUTH DAKOTA

CITY           SKY/WX    TMP DP  RH WIND       PRES   REMARKS
BUFFALO          N/A     28  26  92 NE12      29.85F WCI  18
FAITH            N/A     28  28 100 E10       29.92S WCI  19
MOBRIDGE       CLOUDY    27  23  85 N6        29.94F WCI  20
$$

SDZ012>016-024>037-041>051-057-063-072>074-231200-
SOUTHWEST AND SOUTH CENTRAL SOUTH DAKOTA

CITY           SKY/WX    TMP DP  RH WIND       PRES   REMARKS
RAPID CTY ARPT CLOUDY    29  27  92 NE14      29.85F FOG     WCI  18
PIERRE         CLOUDY    28  24  85 N7        29.94S WCI  21
CUSTER         LGT SNOW  22  19  89 NE9       29.73F FOG     WCI  12
ELLSWORTH AFB  FRZ RAIN  29  29 100 E12       29.85  FOG     WCI  19
PHILIP         CLOUDY    29  26  89 E12       29.91F WCI  19
PINE RIDGE     LGT SNOW  30  28  92 NE10      29.79F FOG     WCI  21
WINNER         CLOUDY    31  27  85 N16       29.90R WCI  20
$$

SDZ004>011-016>023-039-040-231200-
NORTHEAST SOUTH DAKOTA

CITY           SKY/WX    TMP DP  RH WIND       PRES   REMARKS
ABERDEEN       CLOUDY    26  22  84 N7        29.98S WCI  18
WATERTOWN      CLOUDY    27  24  89 N13       29.90F WCI  16
BROOKINGS      CLOUDY    29  25  85 N12       29.88S WCI  19
SISSETON         N/A     27  26  96 N10       29.97S WCI  17
$$

SDZ017-020-022-023-036>040-048>070-231200-
SOUTHEAST SOUTH DAKOTA

CITY           SKY/WX    TMP DP  RH WIND       PRES   REMARKS
SIOUX FALLS    CLOUDY    31  28  89 NE20G26   29.86F WCI  19
HURON          CLOUDY    28  26  92 N10       29.92F WCI  19
CHAMBERLAIN    CLOUDY    31  27  86 N10       29.90F WCI  22
MITCHELL       CLOUDY    31  26  82 N13       29.89F WCI  21
YANKTON        CLOUDY    32  27  80 N13       29.89R WCI  22
$$

ABBREVIATIONS USED IN REMARKS
   TC - TEMPERATURE IN CELSIUS
  WCI - WIND CHILL INDEX
   HX - HEAT INDEX
  VSB - VISIBILITY





USA.gov is the U.S. government's official web portal to all federal, state and local government web resources and services.